Weather History for Dar Es Salaam, Tanzania

Change the Weather History Date:

Wednesday, July 17, 2013

  Actual Average Record
Temperature  
Mean Temperature 76 °F -  
Max Temperature 86 °F 80 °F 87 °F (2012)
Min Temperature 66 °F 66 °F 62 °F (2008)
Cooling Degree Days 11    
Growing Degree Days 26 (Base 50)    
Moisture  
Dew Point 69 °F    
Average Humidity 78    
Maximum Humidity 100    
Minimum Humidity 49    
Precipitation  
Precipitation 0.00 in 0.04 in - ()
Sea Level Pressure  
Sea Level Pressure 30.04 in    
Wind  
Wind Speed 9 mph ()    
Max Wind Speed 22 mph    
Max Gust Speed -    
Visibility 9.7 miles    
Events Fog    
Averages and records for this station are not official NWS values.
T = Trace of Precipitation, MM = Missing Value Source: Averaged Metar Reports

Daily Weather History Graph

Daily Weather History Graph

Search for Another Location

Airport:

Trip Planner

Search our weather history database for the weather conditions in past years. The results will help you decide how hot, cold, wet, or windy it might be!

Date:

Astronomy

Jul. 17, 2013 Rise Set
Actual Time 6:36 AM EAT 6:22 PM EAT
Civil Twilight 6:14 AM EAT 6:44 PM EAT
Nautical Twilight 5:48 AM EAT 7:10 PM EAT
Astronomical Twilight 5:22 AM EAT 7:36 PM EAT
Moon 1:10 PM EAT (7/17) 12:57 AM EAT (7/17)
Length of Visible Light 12h 30m
Length of Day
11h 45m
Waxing Gibbous, 64% of the Moon is Illuminated
Jul 17
Waxing Gibbous
Jul 22
Full
Jul 29
Last Quarter
Aug 7
New
Aug 14
First Quarter

Hourly Weather History & Observations

Time (EAT) Temp. Heat Index Dew Point Humidity Pressure Visibility Wind Dir Wind Speed Gust Speed Precip Events Conditions
12:00 AM 68 °F - 68 °F 98% 30.05 in 19 mi South 11.2 mph - -   Clear
12:00 AM 68.0 °F - 68.0 °F 100% 30.04 in - South 5.8 mph - N/A   Clear
1:00 AM 68.0 °F - 68.0 °F 100% 30.04 in - SSW 5.8 mph - N/A   Clear
2:00 AM 68.0 °F - 68.0 °F 100% 30.01 in 6.2 mi SW 5.8 mph - N/A   Partly Cloudy
3:00 AM 68 °F - 67 °F 98% 30.02 in 19 mi SSW 5.8 mph - -   Scattered Clouds
3:00 AM 68.0 °F - 68.0 °F 100% 30.01 in 6.2 mi SSW 5.8 mph - N/A   Partly Cloudy
6:00 AM 67 °F - 64 °F 87% 30.05 in - SSW 11.2 mph - - Fog Light Fog
7:00 AM 68.0 °F - 66.2 °F 94% 30.06 in 1.9 mi SSW 4.6 mph - N/A Fog Patches of Fog
8:00 AM 71.6 °F - 69.8 °F 94% 30.09 in 2.5 mi South 5.8 mph - N/A Fog Patches of Fog
9:00 AM 75 °F - 70 °F 79% 30.10 in 19 mi South 22.4 mph - -   Partly Cloudy
9:00 AM 75.2 °F - 69.8 °F 83% 30.09 in 6.2 mi South 11.5 mph - N/A   Partly Cloudy
10:00 AM 78.8 °F - 71.6 °F 78% 30.09 in 6.2 mi South 13.8 mph - N/A   Scattered Clouds
11:00 AM 80.6 °F 83.9 °F 69.8 °F 70% 30.06 in 6.2 mi SSE 5.8 mph - N/A   Mostly Cloudy
12:00 PM 82 °F - 69 °F 57% 30.07 in 19 mi ESE 11.5 mph - -   Mostly Cloudy
12:00 PM 82.4 °F 86.3 °F 69.8 °F 66% 30.06 in 6.2 mi ESE 11.5 mph - N/A   Mostly Cloudy
1:00 PM 86.0 °F 91.8 °F 71.6 °F 62% 30.04 in 6.2 mi South 13.8 mph - N/A   Mostly Cloudy
2:00 PM 86.0 °F 90.4 °F 69.8 °F 58% 30.01 in 6.2 mi SSE 13.8 mph - N/A   Mostly Cloudy
3:00 PM 85 °F - 69 °F 49% 30.00 in 19 mi SE 15.0 mph - -   Mostly Cloudy
3:00 PM 86.0 °F 89.4 °F 68.0 °F 55% 29.98 in 6.2 mi SE 15.0 mph - N/A   Mostly Cloudy
4:00 PM 86.0 °F 89.4 °F 68.0 °F 55% 29.98 in 6.2 mi SE 19.6 mph - N/A   Scattered Clouds
5:00 PM 82.4 °F 85.4 °F 68.0 °F 62% 29.98 in 6.2 mi ESE 16.1 mph - N/A   Scattered Clouds
6:00 PM 78 °F - 69 °F 66% 30.01 in 19 mi ESE 11.5 mph - -   Scattered Clouds
6:00 PM 78.8 °F - 68.0 °F 69% 30.01 in 6.2 mi ESE 11.5 mph - N/A   Scattered Clouds
7:00 PM 77.0 °F - 69.8 °F 78% 30.01 in 6.2 mi SSE 10.4 mph - N/A   Scattered Clouds
9:00 PM 73 °F - 69 °F 83% 30.05 in 19 mi South 6.9 mph - -  
9:00 PM 73.4 °F - 69.8 °F 88% 30.04 in 6.2 mi South 6.9 mph - N/A   Clear